| time (UTC) | temp F | wind direction | speed MPH | gust MPH | rain 1hr in | rain 24hr in | rain mn in | humidity % | barometer mb |
| 20260508153507 | 69 | 93 | 1.0 | 6.0 | 0.00 | 0.00 | 0.00 | 88 | 1013.0 |
| 20260508153012 | 69 | 67 | 1.0 | 9.0 | 0.00 | 0.00 | 0.00 | 89 | 1013.0 |
| 20260508152506 | 69 | 67 | 1.0 | 9.0 | 0.00 | 0.00 | 0.00 | 89 | 1012.9 |
| 20260508152006 | 69 | 126 | 2.0 | 6.0 | 0.00 | 0.00 | 0.00 | 89 | 1013.0 |
| 20260508151522 | 69 | 90 | 2.0 | 6.0 | 0.00 | 0.00 | 0.00 | 90 | 1012.9 |
| 20260508151012 | 69 | 334 | 1.0 | 4.0 | 0.00 | 0.00 | 0.00 | 90 | 1012.9 |
| 20260508150510 | 69 | 119 | 1.0 | 3.0 | 0.00 | 0.00 | 0.00 | 90 | 1013.0 |
| 20260508150024 | 69 | 119 | 1.0 | 3.0 | 0.00 | 0.00 | 0.00 | 90 | 1012.9 |
| 20260508145511 | 69 | 78 | 1.0 | 3.0 | 0.00 | 0.00 | 0.00 | 90 | 1013.0 |
| 20260508145007 | 69 | 309 | 1.0 | 4.0 | 0.00 | 0.00 | 0.00 | 90 | 1013.0 |
| 20260508144516 | 69 | 41 | 1.0 | 5.0 | 0.00 | 0.00 | 0.00 | 90 | 1012.9 |
| 20260508144011 | 69 | 59 | 1.0 | 5.0 | 0.00 | 0.00 | 0.00 | 90 | 1013.0 |
| 20260508143515 | 69 | 51 | 1.0 | 4.0 | 0.00 | 0.00 | 0.00 | 90 | 1013.0 |
| 20260508143026 | 69 | 153 | 1.0 | 4.0 | 0.00 | 0.00 | 0.00 | 90 | 1012.9 |
| 20260508142511 | 69 | 93 | 2.0 | 4.0 | 0.00 | 0.00 | 0.00 | 91 | 1012.7 |
| 20260508142010 | 69 | 26 | 1.0 | 3.0 | 0.00 | 0.00 | 0.00 | 91 | 1012.8 |
| 20260508141529 | 69 | 80 | 1.0 | 3.0 | 0.00 | 0.00 | 0.00 | 90 | 1012.7 |
| 20260508141009 | 69 | 51 | 1.0 | 3.0 | 0.00 | 0.00 | 0.00 | 90 | 1013.0 |
| 20260508140507 | 69 | 119 | 1.0 | 3.0 | 0.00 | 0.00 | 0.00 | 90 | 1012.5 |
| 20260508140026 | 69 | 56 | 1.0 | 2.0 | 0.00 | 0.00 | 0.00 | 90 | 1013.0 |
| 20260508135512 | 69 | 137 | 0.0 | 3.0 | 0.00 | 0.00 | 0.00 | 90 | 1013.1 |
| 20260508135011 | 69 | 61 | 1.0 | 3.0 | 0.00 | 0.00 | 0.00 | 90 | 1013.1 |
| 20260508134524 | 69 | 337 | 1.0 | 5.0 | 0.00 | 0.00 | 0.00 | 90 | 1012.9 |
| 20260508134012 | 69 | 183 | 0.0 | 5.0 | 0.00 | 0.00 | 0.00 | 90 | 1012.8 |
| 20260508133516 | 69 | 183 | 2.0 | 5.0 | 0.00 | 0.00 | 0.00 | 90 | 1012.7 |
| 20260508133015 | 69 | 34 | 1.0 | 5.0 | 0.00 | 0.00 | 0.00 | 90 | 1012.4 |
| 20260508132507 | 69 | 196 | 1.0 | 6.0 | 0.00 | 0.00 | 0.00 | 90 | 1012.5 |
| 20260508132010 | 69 | 193 | 1.0 | 6.0 | 0.00 | 0.00 | 0.00 | 90 | 1012.7 |
| 20260508131522 | 69 | 126 | 0.0 | 3.0 | 0.00 | 0.00 | 0.00 | 90 | 1012.8 |
| 20260508131010 | 69 | 76 | 2.0 | 5.0 | 0.00 | 0.00 | 0.00 | 89 | 1012.9 |
| 20260508130511 | 68 | 136 | 1.0 | 5.0 | 0.00 | 0.00 | 0.00 | 89 | 1013.1 |
| 20260508130010 | 68 | 93 | 1.0 | 4.0 | 0.00 | 0.00 | 0.00 | 89 | 1013.1 |
| 20260508125504 | 68 | 196 | 1.0 | 4.0 | 0.00 | 0.00 | 0.00 | 89 | 1013.2 |
| 20260508125004 | 68 | 209 | 1.0 | 3.0 | 0.00 | 0.00 | 0.00 | 89 | 1013.2 |
| 20260508124508 | 68 | 119 | 0.0 | 3.0 | 0.00 | 0.00 | 0.00 | 89 | 1013.0 |
| 20260508124006 | 68 | 153 | 0.0 | 3.0 | 0.00 | 0.00 | 0.00 | 89 | 1012.9 |
| 20260508123505 | 68 | 63 | 1.0 | 3.0 | 0.00 | 0.00 | 0.00 | 89 | 1012.9 |
| 20260508123011 | 68 | 93 | 0.0 | 3.0 | 0.00 | 0.00 | 0.00 | 88 | 1012.9 |
| 20260508122506 | 68 | 51 | 1.0 | 7.0 | 0.00 | 0.00 | 0.00 | 89 | 1012.9 |
| 20260508122004 | 68 | 51 | 1.0 | 7.0 | 0.00 | 0.00 | 0.00 | 88 | 1012.9 |
| 20260508121511 | 68 | 22 | 1.0 | 3.0 | 0.00 | 0.00 | 0.00 | 89 | 1012.8 |
| 20260508121004 | 68 | 51 | 0.0 | 7.0 | 0.00 | 0.00 | 0.00 | 88 | 1012.9 |
| 20260508120506 | 68 | 80 | 1.0 | 7.0 | 0.00 | 0.00 | 0.00 | 88 | 1012.9 |
| 20260508120009 | 68 | 47 | 1.0 | 7.0 | 0.00 | 0.00 | 0.00 | 88 | 1013.2 |
| 20260508115506 | 68 | 146 | 1.0 | 7.0 | 0.00 | 0.00 | 0.00 | 88 | 1013.4 |
| 20260508115004 | 68 | 25 | 1.0 | 6.0 | 0.00 | 0.00 | 0.00 | 88 | 1013.5 |
| 20260508114511 | 68 | 9 | 1.0 | 6.0 | 0.00 | 0.00 | 0.00 | 88 | 1013.6 |
| 20260508114005 | 68 | 40 | 2.0 | 6.0 | 0.00 | 0.00 | 0.00 | 88 | 1013.7 |
| 20260508113504 | 68 | 93 | 1.0 | 3.0 | 0.00 | 0.00 | 0.00 | 88 | 1013.5 |
| 20260508113013 | 68 | 265 | 1.0 | 3.0 | 0.00 | 0.00 | 0.00 | 88 | 1013.3 |
| 20260508112503 | 68 | 78 | 2.0 | 3.0 | 0.00 | 0.00 | 0.00 | 88 | 1013.1 |
| 20260508112005 | 68 | 47 | 1.0 | 3.0 | 0.00 | 0.00 | 0.00 | 88 | 1012.9 |
| 20260508111512 | 68 | 76 | 0.0 | 3.0 | 0.00 | 0.00 | 0.00 | 88 | 1012.6 |
| 20260508111003 | 68 | 178 | 0.0 | 3.0 | 0.00 | 0.00 | 0.00 | 87 | 1012.6 |
| 20260508110504 | 68 | 76 | 1.0 | 4.0 | 0.00 | 0.00 | 0.00 | 87 | 1012.6 |
| 20260508110011 | 68 | 221 | 1.0 | 4.0 | 0.00 | 0.00 | 0.00 | 87 | 1012.7 |
| 20260508105504 | 68 | 99 | 1.0 | 4.0 | 0.00 | 0.00 | 0.00 | 87 | 1012.9 |
| 20260508105009 | 68 | 80 | 0.0 | 4.0 | 0.00 | 0.00 | 0.00 | 87 | 1013.1 |
| 20260508104511 | 68 | 98 | 2.0 | 4.0 | 0.00 | 0.00 | 0.00 | 87 | 1013.0 |
| 20260508104006 | 68 | 65 | 1.0 | 5.0 | 0.00 | 0.00 | 0.00 | 87 | 1012.7 |
| 20260508103503 | 68 | 93 | 2.0 | 5.0 | 0.00 | 0.00 | 0.00 | 86 | 1012.5 |
| 20260508103017 | 68 | 9 | 1.0 | 5.0 | 0.00 | 0.00 | 0.00 | 86 | 1012.8 |
| 20260508102503 | 68 | 98 | 1.0 | 8.0 | 0.00 | 0.00 | 0.00 | 86 | 1012.8 |
| 20260508102003 | 68 | 30 | 1.0 | 8.0 | 0.00 | 0.00 | 0.00 | 86 | 1012.9 |
| 20260508101509 | 69 | 309 | 1.0 | 7.0 | 0.00 | 0.00 | 0.00 | 86 | 1012.9 |
| 20260508101004 | 69 | 325 | 1.0 | 4.0 | 0.00 | 0.00 | 0.00 | 86 | 1012.6 |
| 20260508100503 | 69 | 105 | 1.0 | 4.0 | 0.00 | 0.00 | 0.00 | 86 | 1013.0 |
| 20260508100012 | 69 | 23 | 1.0 | 4.0 | 0.00 | 0.00 | 0.00 | 86 | 1013.3 |
| 20260508095503 | 69 | 59 | 1.0 | 4.0 | 0.00 | 0.00 | 0.00 | 86 | 1013.0 |
| 20260508095006 | 69 | 300 | 1.0 | 9.0 | 0.00 | 0.00 | 0.00 | 86 | 1012.9 |
| 20260508094512 | 69 | 111 | 1.0 | 9.0 | 0.00 | 0.00 | 0.00 | 86 | 1012.9 |
| 20260508094012 | 69 | 93 | 1.0 | 3.0 | 0.00 | 0.00 | 0.00 | 86 | 1012.7 |
| 20260508093507 | 69 | 221 | 0.0 | 3.0 | 0.00 | 0.00 | 0.00 | 86 | 1012.8 |
| 20260508093020 | 69 | 93 | 1.0 | 4.0 | 0.00 | 0.00 | 0.00 | 85 | 1012.7 |
| 20260508092504 | 69 | 51 | 1.0 | 4.0 | 0.00 | 0.00 | 0.00 | 85 | 1012.9 |
| 20260508092006 | 69 | 93 | 1.0 | 5.0 | 0.00 | 0.00 | 0.00 | 85 | 1012.3 |
| 20260508091519 | 69 | 90 | 2.0 | 5.0 | 0.00 | 0.00 | 0.00 | 85 | 1012.0 |
| 20260508091003 | 69 | 196 | 1.0 | 3.0 | 0.00 | 0.00 | 0.00 | 85 | 1012.2 |
| 20260508090503 | 69 | 111 | 1.0 | 3.0 | 0.00 | 0.00 | 0.00 | 85 | 1012.3 |
| 20260508090011 | 69 | 265 | 0.0 | 4.0 | 0.00 | 0.00 | 0.00 | 85 | 1012.3 |
| 20260508085507 | 69 | 93 | 1.0 | 4.0 | 0.00 | 0.00 | 0.00 | 85 | 1012.2 |
| 20260508085007 | 69 | 93 | 1.0 | 4.0 | 0.00 | 0.00 | 0.00 | 85 | 1012.1 |
| 20260508084512 | 69 | 93 | 1.0 | 4.0 | 0.00 | 0.00 | 0.00 | 85 | 1012.3 |
| 20260508084009 | 69 | 80 | 1.0 | 3.0 | 0.00 | 0.00 | 0.00 | 85 | 1012.5 |
| 20260508083507 | 69 | 341 | 1.0 | 3.0 | 0.00 | 0.00 | 0.00 | 85 | 1012.8 |
| 20260508083012 | 69 | 38 | 1.0 | 4.0 | 0.00 | 0.00 | 0.00 | 85 | 1012.9 |
| 20260508082507 | 69 | 83 | 1.0 | 4.0 | 0.00 | 0.00 | 0.00 | 85 | 1012.9 |
| 20260508082007 | 70 | 34 | 1.0 | 4.0 | 0.00 | 0.00 | 0.00 | 85 | 1012.7 |
| 20260508081512 | 70 | 51 | 0.0 | 2.0 | 0.00 | 0.00 | 0.00 | 85 | 1012.6 |
| 20260508081004 | 70 | 93 | 0.0 | 3.0 | 0.00 | 0.00 | 0.00 | 85 | 1012.8 |
| 20260508080512 | 70 | 34 | 1.0 | 4.0 | 0.00 | 0.00 | 0.00 | 84 | 1012.8 |
| 20260508080014 | 70 | 9 | 0.0 | 4.0 | 0.00 | 0.00 | 0.00 | 84 | 1012.8 |
| 20260508075504 | 70 | 93 | 0.0 | 3.0 | 0.00 | 0.00 | 0.00 | 84 | 1012.7 |
| 20260508075006 | 70 | 76 | 1.0 | 3.0 | 0.00 | 0.00 | 0.00 | 84 | 1012.6 |
| 20260508074514 | 70 | 51 | 1.0 | 4.0 | 0.00 | 0.00 | 0.00 | 84 | 1013.0 |
| 20260508074006 | 70 | 44 | 1.0 | 5.0 | 0.00 | 0.00 | 0.00 | 84 | 1013.0 |
| 20260508073507 | 70 | 325 | 0.0 | 5.0 | 0.00 | 0.00 | 0.00 | 84 | 1013.1 |
| 20260508073012 | 70 | 9 | 1.0 | 3.0 | 0.00 | 0.00 | 0.00 | 84 | 1013.2 |
| 20260508072503 | 70 | 316 | 1.0 | 4.0 | 0.00 | 0.00 | 0.00 | 84 | 1013.2 |
| 20260508072003 | 70 | 26 | 0.0 | 4.0 | 0.00 | 0.00 | 0.00 | 84 | 1013.1 |
| 20260508071522 | 70 | 9 | 0.0 | 2.0 | 0.00 | 0.00 | 0.00 | 84 | 1013.2 |
| 20260508071009 | 70 | 93 | 0.0 | 2.0 | 0.00 | 0.00 | 0.00 | 84 | 1013.2 |
| 20260508070507 | 70 | 111 | 0.0 | 2.0 | 0.00 | 0.00 | 0.00 | 85 | 1013.1 |
| 20260508070012 | 70 | 44 | 1.0 | 2.0 | 0.00 | 0.00 | 0.00 | 85 | 1013.2 |
| 20260508065508 | 70 | 44 | 1.0 | 2.0 | 0.00 | 0.00 | 0.00 | 85 | 1013.2 |
| 20260508065006 | 70 | 9 | 1.0 | 2.0 | 0.00 | 0.00 | 0.00 | 84 | 1013.4 |
| 20260508064514 | 70 | 34 | 0.0 | 3.0 | 0.00 | 0.00 | 0.00 | 85 | 1013.5 |
| 20260508064005 | 70 | 67 | 0.0 | 3.0 | 0.00 | 0.00 | 0.00 | 84 | 1013.4 |
| 20260508063504 | 70 | 76 | 1.0 | 3.0 | 0.00 | 0.00 | 0.00 | 85 | 1013.4 |
| 20260508063012 | 70 | 51 | 0.0 | 2.0 | 0.00 | 0.00 | 0.00 | 84 | 1013.3 |
| 20260508062509 | 70 | 9 | 0.0 | 3.0 | 0.00 | 0.00 | 0.00 | 84 | 1013.2 |
| 20260508062006 | 70 | 105 | 0.0 | 3.0 | 0.00 | 0.00 | 0.00 | 85 | 1013.2 |
| 20260508061521 | 70 | 67 | 1.0 | 3.0 | 0.00 | 0.00 | 0.00 | 84 | 1013.1 |
| 20260508061008 | 70 | 126 | 1.0 | 3.0 | 0.00 | 0.00 | 0.00 | 84 | 1013.0 |
| 20260508060509 | 70 | 93 | 1.0 | 2.0 | 0.00 | 0.00 | 0.00 | 84 | 1012.9 |
| 20260508060017 | 70 | 67 | 1.0 | 2.0 | 0.00 | 0.00 | 0.00 | 84 | 1013.0 |
| 20260508055507 | 70 | 93 | 0.0 | 2.0 | 0.00 | 0.00 | 0.00 | 83 | 1013.3 |
| 20260508055006 | 70 | 309 | 0.0 | 1.0 | 0.00 | 0.00 | 0.00 | 83 | 1013.2 |
| 20260508054519 | 70 | 93 | 0.0 | 1.0 | 0.00 | 0.00 | 0.00 | 83 | 1013.3 |
| 20260508054009 | 70 | 9 | 0.0 | 2.0 | 0.00 | 0.00 | 0.00 | 83 | 1013.2 |
| 20260508053507 | 70 | 34 | 0.0 | 3.0 | 0.00 | 0.00 | 0.00 | 82 | 1013.1 |
| 20260508053015 | 70 | 93 | 0.0 | 3.0 | 0.00 | 0.00 | 0.00 | 82 | 1013.0 |
| 20260508052514 | 70 | 72 | 0.0 | 2.0 | 0.00 | 0.00 | 0.00 | 82 | 1013.2 |
| 20260508052006 | 70 | 309 | 0.0 | 2.0 | 0.00 | 0.00 | 0.00 | 82 | 1013.4 |
| 20260508051525 | 70 | 93 | 0.0 | 4.0 | 0.00 | 0.00 | 0.00 | 82 | 1013.3 |
| 20260508051007 | 70 | 247 | 0.0 | 4.0 | 0.00 | 0.00 | 0.00 | 82 | 1013.3 |
| 20260508050507 | 70 | 309 | 1.0 | 3.0 | 0.00 | 0.00 | 0.00 | 81 | 1013.3 |
| 20260508050016 | 70 | 67 | 0.0 | 3.0 | 0.00 | 0.00 | 0.00 | 81 | 1013.4 |
| 20260508045511 | 70 | 61 | 1.0 | 3.0 | 0.00 | 0.00 | 0.00 | 81 | 1013.2 |
| 20260508045006 | 70 | 153 | 1.0 | 3.0 | 0.00 | 0.00 | 0.00 | 81 | 1013.2 |
| 20260508044516 | 70 | 34 | 0.0 | 3.0 | 0.00 | 0.00 | 0.00 | 81 | 1013.4 |
| 20260508044007 | 70 | 34 | 1.0 | 3.0 | 0.00 | 0.00 | 0.00 | 81 | 1013.3 |
| 20260508043512 | 70 | 93 | 1.0 | 3.0 | 0.00 | 0.00 | 0.00 | 80 | 1013.3 |
| 20260508043017 | 71 | 26 | 1.0 | 3.0 | 0.00 | 0.00 | 0.00 | 80 | 1013.2 |
| 20260508042508 | 71 | 61 | 1.0 | 3.0 | 0.00 | 0.00 | 0.00 | 81 | 1013.5 |
| 20260508042007 | 71 | 325 | 1.0 | 4.0 | 0.00 | 0.00 | 0.00 | 81 | 1013.7 |
| 20260508041516 | 71 | 76 | 1.0 | 4.0 | 0.00 | 0.00 | 0.00 | 80 | 1013.7 |
| 20260508041007 | 71 | 93 | 0.0 | 3.0 | 0.00 | 0.00 | 0.00 | 80 | 1013.5 |
| 20260508040507 | 71 | 51 | 1.0 | 6.0 | 0.00 | 0.00 | 0.00 | 80 | 1013.4 |
| 20260508040015 | 71 | 83 | 1.0 | 6.0 | 0.00 | 0.00 | 0.00 | 80 | 1013.6 |
| 20260508035507 | 71 | 97 | 1.0 | 6.0 | 0.00 | 0.00 | 0.00 | 80 | 1013.6 |
| 20260508035007 | 72 | 265 | 1.0 | 5.0 | 0.00 | 0.00 | 0.00 | 80 | 1013.1 |
| 20260508034513 | 72 | 9 | 1.0 | 5.0 | 0.00 | 0.00 | 0.00 | 80 | 1012.4 |
| 20260508034009 | 72 | 146 | 1.0 | 5.0 | 0.00 | 0.00 | 0.00 | 80 | 1012.3 |
| 20260508033512 | 72 | 115 | 1.0 | 5.0 | 0.00 | 0.00 | 0.00 | 80 | 1012.6 |
| 20260508033017 | 72 | 173 | 1.0 | 4.0 | 0.00 | 0.00 | 0.00 | 80 | 1012.9 |
| 20260508032512 | 72 | 211 | 1.0 | 3.0 | 0.00 | 0.00 | 0.00 | 80 | 1013.2 |
| 20260508032008 | 72 | 111 | 0.0 | 2.0 | 0.00 | 0.00 | 0.00 | 80 | 1013.5 |
| 20260508031519 | 72 | 51 | 0.0 | 2.0 | 0.00 | 0.00 | 0.00 | 80 | 1013.7 |
| 20260508031010 | 72 | 93 | 0.0 | 3.0 | 0.00 | 0.00 | 0.00 | 80 | 1013.6 |
| 20260508030508 | 72 | 103 | 1.0 | 3.0 | 0.00 | 0.00 | 0.00 | 80 | 1013.7 |
| 20260508030015 | 72 | 22 | 0.0 | 3.0 | 0.00 | 0.00 | 0.00 | 81 | 1013.7 |
| 20260508025506 | 73 | 93 | 1.0 | 3.0 | 0.00 | 0.00 | 0.00 | 81 | 1013.7 |
| 20260508025006 | 73 | 51 | 0.0 | 3.0 | 0.00 | 0.00 | 0.00 | 80 | 1013.7 |
| 20260508024517 | 73 | 83 | 1.0 | 3.0 | 0.00 | 0.00 | 0.00 | 80 | 1013.6 |
| 20260508024007 | 73 | 26 | 1.0 | 3.0 | 0.00 | 0.00 | 0.00 | 80 | 1013.7 |
| 20260508023508 | 73 | 67 | 0.0 | 3.0 | 0.00 | 0.00 | 0.00 | 80 | 1013.8 |
| 20260508023018 | 73 | 51 | 0.0 | 2.0 | 0.00 | 0.00 | 0.00 | 80 | 1013.7 |
| 20260508022506 | 73 | 67 | 0.0 | 3.0 | 0.00 | 0.00 | 0.00 | 80 | 1013.4 |
| 20260508022012 | 73 | 93 | 0.0 | 3.0 | 0.00 | 0.00 | 0.00 | 80 | 1013.3 |
| 20260508021517 | 73 | 76 | 0.0 | 2.0 | 0.00 | 0.00 | 0.00 | 80 | 1013.4 |
| 20260508021007 | 73 | 119 | 0.0 | 2.0 | 0.00 | 0.00 | 0.00 | 80 | 1013.5 |
| 20260508020506 | 73 | 360 | 0.0 | 3.0 | 0.00 | 0.00 | 0.00 | 79 | 1013.4 |
| 20260508020018 | 74 | 61 | 0.0 | 3.0 | 0.00 | 0.00 | 0.00 | 79 | 1013.4 |
| 20260508015505 | 74 | 20 | 1.0 | 3.0 | 0.00 | 0.00 | 0.00 | 79 | 1013.4 |
| 20260508015005 | 74 | 78 | 1.0 | 3.0 | 0.00 | 0.00 | 0.00 | 79 | 1013.5 |
| 20260508014518 | 74 | 119 | 0.0 | 4.0 | 0.00 | 0.00 | 0.00 | 78 | 1013.5 |
| 20260508014008 | 74 | 61 | 1.0 | 4.0 | 0.00 | 0.00 | 0.00 | 79 | 1013.5 |
| 20260508013505 | 74 | 76 | 1.0 | 3.0 | 0.00 | 0.00 | 0.00 | 79 | 1013.4 |
| 20260508013019 | 74 | 80 | 0.0 | 3.0 | 0.00 | 0.00 | 0.00 | 78 | 1013.5 |
| 20260508012508 | 74 | 119 | 1.0 | 3.0 | 0.00 | 0.00 | 0.00 | 78 | 1013.5 |
| 20260508012007 | 74 | 46 | 0.0 | 3.0 | 0.00 | 0.00 | 0.00 | 78 | 1013.6 |
| 20260508011525 | 75 | 325 | 1.0 | 3.0 | 0.00 | 0.00 | 0.00 | 77 | 1013.5 |
| 20260508011013 | 75 | 44 | 0.0 | 2.0 | 0.00 | 0.00 | 0.00 | 77 | 1013.5 |
| 20260508010507 | 75 | 46 | 1.0 | 2.0 | 0.00 | 0.00 | 0.00 | 76 | 1013.4 |
| 20260508010017 | 75 | 115 | 1.0 | 3.0 | 0.00 | 0.00 | 0.00 | 76 | 1013.5 |
| 20260508005506 | 75 | 86 | 1.0 | 4.0 | 0.00 | 0.00 | 0.00 | 75 | 1013.6 |
| 20260508005006 | 75 | 56 | 2.0 | 5.0 | 0.00 | 0.00 | 0.00 | 75 | 1013.7 |
| 20260508004524 | 75 | 58 | 2.0 | 6.0 | 0.00 | 0.00 | 0.00 | 75 | 1013.7 |
| 20260508004010 | 76 | 51 | 1.0 | 6.0 | 0.00 | 0.00 | 0.00 | 75 | 1013.7 |
| 20260508003507 | 76 | 63 | 1.0 | 6.0 | 0.00 | 0.00 | 0.00 | 76 | 1013.4 |
| 20260508003021 | 76 | 23 | 1.0 | 6.0 | 0.00 | 0.00 | 0.00 | 75 | 1013.3 |
| 20260508002508 | 76 | 93 | 2.0 | 5.0 | 0.00 | 0.00 | 0.00 | 75 | 1013.4 |
| 20260508002010 | 76 | 57 | 1.0 | 5.0 | 0.00 | 0.00 | 0.00 | 74 | 1013.5 |
| 20260508001517 | 76 | 51 | 1.0 | 4.0 | 0.00 | 0.00 | 0.00 | 74 | 1013.6 |
| 20260508001010 | 77 | 63 | 1.0 | 6.0 | 0.00 | 0.00 | 0.00 | 75 | 1013.5 |
| 20260508000519 | 77 | 93 | 1.0 | 6.0 | 0.00 | 0.01 | 0.00 | 75 | 1013.6 |
| 20260508000019 | 77 | 71 | 1.0 | 8.0 | 0.00 | 0.01 | 0.00 | 74 | 1013.6 |
| 20260507235507 | 77 | 55 | 2.0 | 8.0 | 0.00 | 0.01 | 0.00 | 74 | 1013.6 |
| 20260507235006 | 77 | 309 | 1.0 | 9.0 | 0.00 | 0.01 | 0.00 | 75 | 1013.7 |
| 20260507234521 | 78 | 61 | 1.0 | 9.0 | 0.00 | 0.01 | 0.00 | 74 | 1013.7 |
| 20260507234007 | 78 | 9 | 2.0 | 9.0 | 0.00 | 0.01 | 0.00 | 75 | 1013.7 |
| 20260507233513 | 79 | 34 | 1.0 | 8.0 | 0.00 | 0.01 | 0.00 | 75 | 1013.7 |
| 20260507233023 | 79 | 78 | 3.0 | 8.0 | 0.00 | 0.01 | 0.00 | 74 | 1013.6 |
| 20260507232506 | 80 | 51 | 1.0 | 6.0 | 0.00 | 0.01 | 0.00 | 74 | 1013.5 |
| 20260507232008 | 81 | 38 | 1.0 | 5.0 | 0.00 | 0.01 | 0.00 | 74 | 1013.4 |
| 20260507231531 | 81 | 319 | 2.0 | 5.0 | 0.00 | 0.01 | 0.00 | 74 | 1013.3 |
| 20260507231008 | 81 | 137 | 1.0 | 4.0 | 0.00 | 0.01 | 0.00 | 74 | 1013.2 |
| 20260507230510 | 81 | 34 | 1.0 | 4.0 | 0.00 | 0.01 | 0.00 | 75 | 1013.3 |
| 20260507230015 | 81 | 72 | 1.0 | 3.0 | 0.00 | 0.01 | 0.00 | 75 | 1013.2 |
| 20260507225511 | 80 | 51 | 1.0 | 7.0 | 0.00 | 0.01 | 0.00 | 74 | 1013.0 |
| 20260507225009 | 81 | 51 | 2.0 | 7.0 | 0.00 | 0.01 | 0.00 | 75 | 1013.1 |
| 20260507224522 | 80 | 88 | 2.0 | 7.0 | 0.00 | 0.01 | 0.00 | 75 | 1013.1 |
| 20260507224006 | 80 | 221 | 1.0 | 7.0 | 0.00 | 0.01 | 0.00 | 76 | 1013.1 |
| 20260507223512 | 79 | 83 | 1.0 | 6.0 | 0.00 | 0.01 | 0.00 | 77 | 1012.9 |
| 20260507223023 | 79 | 330 | 1.0 | 6.0 | 0.00 | 0.01 | 0.00 | 76 | 1012.8 |
| 20260507222506 | 79 | 70 | 2.0 | 5.0 | 0.00 | 0.01 | 0.00 | 76 | 1012.8 |
| 20260507222007 | 79 | 75 | 2.0 | 5.0 | 0.00 | 0.01 | 0.00 | 77 | 1012.8 |
| 20260507221518 | 79 | 314 | 2.0 | 5.0 | 0.00 | 0.01 | 0.00 | 76 | 1012.8 |
| 20260507221013 | 79 | 65 | 1.0 | 6.0 | 0.00 | 0.01 | 0.00 | 76 | 1012.9 |
| 20260507220511 | 79 | 41 | 1.0 | 6.0 | 0.00 | 0.01 | 0.00 | 76 | 1012.9 |
| 20260507220023 | 79 | 111 | 2.0 | 6.0 | 0.00 | 0.01 | 0.00 | 76 | 1013.0 |
| 20260507215512 | 79 | 344 | 3.0 | 8.0 | 0.00 | 0.01 | 0.00 | 75 | 1013.0 |
| 20260507215013 | 80 | 334 | 2.0 | 8.0 | 0.00 | 0.01 | 0.00 | 75 | 1013.2 |
| 20260507214515 | 81 | 25 | 2.0 | 10.0 | 0.00 | 0.01 | 0.00 | 75 | 1013.2 |
| 20260507214007 | 81 | 44 | 2.0 | 10.0 | 0.00 | 0.01 | 0.00 | 74 | 1013.4 |
| 20260507213510 | 81 | 119 | 2.0 | 7.0 | 0.00 | 0.01 | 0.00 | 75 | 1013.4 |
| 20260507213026 | 82 | 51 | 1.0 | 7.0 | 0.00 | 0.01 | 0.00 | 74 | 1013.4 |
| 20260507212510 | 81 | 65 | 3.0 | 6.0 | 0.00 | 0.01 | 0.00 | 75 | 1013.5 |
| 20260507212011 | 81 | 85 | 2.0 | 7.0 | 0.00 | 0.01 | 0.00 | 72 | 1013.5 |
| 20260507211521 | 82 | 51 | 3.0 | 7.0 | 0.00 | 0.01 | 0.00 | 74 | 1013.6 |
| 20260507211013 | 82 | 229 | 2.0 | 6.0 | 0.00 | 0.01 | 0.00 | 76 | 1013.6 |
| 20260507210509 | 81 | 265 | 2.0 | 6.0 | 0.00 | 0.01 | 0.00 | 74 | 1013.7 |
| 20260507210019 | 81 | 101 | 2.0 | 6.0 | 0.00 | 0.01 | 0.00 | 76 | 1013.8 |
| 20260507205508 | 81 | 9 | 3.0 | 7.0 | 0.00 | 0.01 | 0.00 | 72 | 1013.8 |
| 20260507205013 | 82 | 51 | 2.0 | 8.0 | 0.00 | 0.01 | 0.00 | 74 | 1013.8 |
| 20260507204521 | 82 | 93 | 2.0 | 8.0 | 0.00 | 0.01 | 0.00 | 75 | 1013.9 |
| 20260507204012 | 81 | 65 | 2.0 | 7.0 | 0.00 | 0.01 | 0.00 | 77 | 1014.0 |
| 20260507203510 | 81 | 41 | 1.0 | 7.0 | 0.00 | 0.01 | 0.00 | 75 | 1014.0 |
| 20260507203026 | 81 | 34 | 2.0 | 6.0 | 0.00 | 0.01 | 0.00 | 75 | 1013.9 |
| 20260507202506 | 80 | 93 | 1.0 | 8.0 | 0.00 | 0.01 | 0.00 | 77 | 1014.1 |
| 20260507202006 | 80 | 76 | 1.0 | 8.0 | 0.00 | 0.01 | 0.00 | 76 | 1014.0 |
| 20260507201521 | 80 | 88 | 2.0 | 9.0 | 0.00 | 0.01 | 0.00 | 76 | 1014.0 |
| 20260507201010 | 80 | 9 | 2.0 | 9.0 | 0.00 | 0.01 | 0.00 | 77 | 1014.1 |
| 20260507200509 | 80 | 51 | 3.0 | 7.0 | 0.00 | 0.01 | 0.00 | 75 | 1014.2 |
| 20260507200029 | 80 | 101 | 1.0 | 8.0 | 0.00 | 0.01 | 0.00 | 76 | 1014.1 |
| 20260507195507 | 80 | 42 | 3.0 | 8.0 | 0.00 | 0.01 | 0.00 | 75 | 1014.2 |
| 20260507195008 | 79 | 93 | 2.0 | 8.0 | 0.00 | 0.01 | 0.00 | 78 | 1014.2 |
| 20260507194514 | 79 | 46 | 3.0 | 8.0 | 0.00 | 0.01 | 0.00 | 74 | 1014.2 |
| 20260507194005 | 79 | 101 | 2.0 | 7.0 | 0.00 | 0.01 | 0.00 | 78 | 1014.3 |
| 20260507193507 | 78 | 67 | 3.0 | 9.0 | 0.00 | 0.01 | 0.00 | 78 | 1014.4 |
| 20260507193024 | 77 | 71 | 3.0 | 9.0 | 0.00 | 0.01 | 0.00 | 81 | 1014.4 |
| 20260507192510 | 76 | 51 | 1.0 | 5.0 | 0.00 | 0.01 | 0.00 | 78 | 1014.4 |
| 20260507192016 | 75 | 84 | 2.0 | 10.0 | 0.00 | 0.01 | 0.00 | 80 | 1014.6 |
| 20260507191524 | 75 | 40 | 3.0 | 10.0 | 0.00 | 0.01 | 0.00 | 78 | 1015.0 |
| 20260507191010 | 75 | 67 | 2.0 | 10.0 | 0.00 | 0.01 | 0.00 | 78 | 1015.1 |
| 20260507190506 | 75 | 96 | 4.0 | 10.0 | 0.00 | 0.01 | 0.00 | 79 | 1015.2 |
| 20260507190018 | 76 | 329 | 4.0 | 9.0 | 0.00 | 0.01 | 0.00 | 78 | 1015.2 |
| 20260507185507 | 75 | 76 | 3.0 | 8.0 | 0.00 | 0.01 | 0.00 | 80 | 1015.3 |
| 20260507185008 | 75 | 49 | 2.0 | 8.0 | 0.00 | 0.01 | 0.00 | 80 | 1015.4 |
| 20260507184522 | 74 | 323 | 2.0 | 8.0 | 0.00 | 0.01 | 0.00 | 82 | 1015.3 |
| 20260507184009 | 74 | 9 | 2.0 | 8.0 | 0.00 | 0.01 | 0.00 | 82 | 1015.2 |
| 20260507183508 | 73 | 51 | 3.0 | 8.0 | 0.00 | 0.01 | 0.00 | 81 | 1015.3 |
| 20260507183035 | 73 | 34 | 3.0 | 10.0 | 0.00 | 0.01 | 0.00 | 81 | 1015.4 |
| 20260507182510 | 73 | 22 | 1.0 | 10.0 | 0.00 | 0.01 | 0.00 | 81 | 1015.4 |
| 20260507182007 | 73 | 31 | 3.0 | 10.0 | 0.00 | 0.01 | 0.00 | 79 | 1015.4 |
| 20260507181522 | 74 | 76 | 2.0 | 9.0 | 0.00 | 0.01 | 0.00 | 80 | 1015.4 |
| 20260507181013 | 74 | 13 | 3.0 | 12.0 | 0.00 | 0.01 | 0.00 | 79 | 1015.4 |
| 20260507180509 | 74 | 60 | 3.0 | 12.0 | 0.00 | 0.01 | 0.00 | 80 | 1015.5 |
| 20260507180036 | 73 | 9 | 4.0 | 13.0 | 0.00 | 0.01 | 0.00 | 81 | 1015.5 |
| 20260507175513 | 73 | 243 | 4.0 | 13.0 | 0.00 | 0.01 | 0.00 | 81 | 1015.7 |
| 20260507175011 | 73 | 17 | 3.0 | 11.0 | 0.00 | 0.01 | 0.00 | 81 | 1015.8 |
| 20260507174532 | 73 | 347 | 4.0 | 11.0 | 0.00 | 0.01 | 0.00 | 81 | 1016.0 |
| 20260507174010 | 73 | 344 | 3.0 | 11.0 | 0.00 | 0.01 | 0.00 | 81 | 1015.9 |
| 20260507173515 | 73 | 51 | 3.0 | 8.0 | 0.00 | 0.01 | 0.00 | 82 | 1016.0 |
| 20260507173024 | 73 | 342 | 3.0 | 9.0 | 0.00 | 0.01 | 0.00 | 81 | 1016.0 |
| 20260507172508 | 72 | 265 | 4.0 | 9.0 | 0.00 | 0.01 | 0.00 | 82 | 1016.2 |
| 20260507172013 | 72 | 67 | 2.0 | 9.0 | 0.00 | 0.01 | 0.00 | 82 | 1016.2 |
| 20260507171527 | 71 | 34 | 3.0 | 8.0 | 0.00 | 0.01 | 0.00 | 83 | 1016.4 |
| 20260507171009 | 70 | 265 | 1.0 | 7.0 | 0.00 | 0.01 | 0.00 | 83 | 1016.4 |
| 20260507170511 | 69 | 9 | 2.0 | 8.0 | 0.00 | 0.01 | 0.00 | 83 | 1016.4 |
| 20260507170022 | 69 | 74 | 2.0 | 12.0 | 0.00 | 0.01 | 0.00 | 82 | 1016.5 |
| 20260507165508 | 69 | 51 | 3.0 | 12.0 | 0.00 | 0.01 | 0.00 | 82 | 1016.5 |
| 20260507165013 | 69 | 44 | 2.0 | 8.0 | 0.00 | 0.01 | 0.00 | 83 | 1016.4 |
| 20260507164524 | 70 | 9 | 3.0 | 8.0 | 0.00 | 0.01 | 0.00 | 83 | 1016.3 |
| 20260507164013 | 70 | 93 | 1.0 | 7.0 | 0.00 | 0.01 | 0.00 | 84 | 1016.4 |
| 20260507163508 | 69 | 47 | 3.0 | 7.0 | 0.00 | 0.01 | 0.00 | 84 | 1016.3 |
| 20260507163025 | 69 | 332 | 1.0 | 8.0 | 0.00 | 0.01 | 0.00 | 84 | 1016.3 |
| 20260507162508 | 69 | 56 | 2.0 | 8.0 | 0.00 | 0.01 | 0.00 | 84 | 1016.3 |
| 20260507162011 | 69 | 27 | 2.0 | 7.0 | 0.00 | 0.01 | 0.00 | 85 | 1016.1 |
| 20260507161538 | 68 | 123 | 1.0 | 8.0 | 0.00 | 0.01 | 0.00 | 85 | 1016.0 |
| 20260507161008 | 68 | 9 | 3.0 | 8.0 | 0.00 | 0.01 | 0.00 | 85 | 1016.0 |
| 20260507160510 | 68 | 78 | 1.0 | 9.0 | 0.00 | 0.01 | 0.00 | 86 | 1015.9 |
| 20260507160034 | 67 | 332 | 3.0 | 9.0 | 0.00 | 0.01 | 0.00 | 86 | 1015.7 |
| 20260507155511 | 67 | 15 | 2.0 | 8.0 | 0.00 | 0.01 | 0.00 | 86 | 1015.8 |
| 20260507155010 | 66 | 153 | 2.0 | 8.0 | 0.00 | 0.01 | 0.00 | 86 | 1015.9 |
| 20260507154518 | 66 | 15 | 2.0 | 8.0 | 0.00 | 0.01 | 0.00 | 86 | 1016.0 |
| 20260507154010 | 67 | 51 | 2.0 | 8.0 | 0.00 | 0.01 | 0.00 | 86 | 1016.0 |